Regional Weather Roundup
Issued by NWS

Home | Current Version | Previous Version | Text Only | Print | Product List | Glossary On
Versions: 1 2 3 4 5 6 7 8 9 10 11 12 13 14 15 16 17 18 19 20 21 22 23 24 25 26 27 28 29 30 31 32 33 34 35 36 37 38 39 40 41 42 43 44 45 46 47 48 49 50
000
ASUS43 KDMX 040007
RWRIA

WEATHER ROUNDUP FOR IOWA
NATIONAL WEATHER SERVICE DES MOINES IA
700 PM CDT SUN MAY 03 2015

NOTE: "FAIR" INDICATES FEW OR NO CLOUDS BELOW 12,000 FEET WITH NO
SIGNIFICANT WEATHER AND/OR OBSTRUCTIONS TO VISIBILITY.

* - THESE STATIONS ARE NOT NWS STATIONS...THUS NOT UNDER NWS
QUALITY CONTROL.  THEY ALSO DO NOT REPORT WEATHER SUCH
AS PRECIPITATION OR FOG.

IAZ001>003-012>014-020>022-031>034-043>046-040100-
   NORTHWEST IOWA

CITY           SKY/WX    TMP DP  RH WIND       PRES   REMARKS
CARROLL *      SUNNY     81  59  47 S17       29.73F HX  81
CHEROKEE *     PTSUNNY   74  49  40 N20G32    29.76R
DENISON *      SUNNY     79  57  47 S8G15     29.72S HX  80
LE MARS *      SUNNY     77  45  31 N22G31    29.77S
ORANGE CITY *  SUNNY     73  43  33 NE20G26   29.78S
SHELDON *      SUNNY     73  43  33 NE29G39   29.77F
SIOUX CITY     MOSUNNY   81  51  35 NE24      29.72S HX  80
6HR MIN TEMP:  79; 6HR MAX TEMP:  87;

SPENCER        CLOUDY    72  50  45 N24G35    29.78S
6HR MIN TEMP:  67; 6HR MAX TEMP:  87; 6HR PCP:  0.47;

STORM LAKE *   MOSUNNY   75  57  53 N23G32    29.76R
$$

IAZ055>058-069>071-079>083-090>094-040100-
   SOUTHWEST IOWA

CITY           SKY/WX    TMP DP  RH WIND       PRES   REMARKS
ATLANTIC *     SUNNY     77  61  57 S8        29.75S
AUDUBON *      SUNNY     77  63  61 S6        29.77S
CLARINDA *     SUNNY     77  59  53 S8        29.80S
COUNCIL BLFS * SUNNY     75  59  57 S6        29.75S
CRESTON *      MOSUNNY   75  59  57 S17       29.78F
HARLAN  *      SUNNY     79  63  57 S8        29.77F HX  80
LAMONI         PTSUNNY   80  60  50 S12       29.81S HX  81
6HR MIN TEMP:  78; 6HR MAX TEMP:  83;

RED OAK *      SUNNY     75  61  60 S14       29.75R
SHENANDOAH *   PTSUNNY   77  61  57 S9        29.78S
$$

IAZ047>049-059>061-072>074-084-040100-
   CENTRAL IOWA

CITY           SKY/WX    TMP DP  RH WIND       PRES   REMARKS
AMES           MOSUNNY   78  59  51 S14       29.75F
6HR MIN TEMP:  77; 6HR MAX TEMP:  82;

ANKENY *       SUNNY     79  59  50 S7G18     29.76F HX  80
CHARITON *     MOSUNNY   77  57  50 S13G22    29.80F
DES MOINES     PTSUNNY   80  57  45 S9        29.77F HX  80
6HR MIN TEMP:  79; 6HR MAX TEMP:  85;

GRINNELL*      MOSUNNY   77  57  50 S15G22    29.80F
KNOXVILLE *    PTSUNNY   79  61  53 S10       29.78F HX  80
MARSHALLTOWN   PTSUNNY   78  59  51 S14G21    29.75F
6HR MIN TEMP:  76; 6HR MAX TEMP:  80;

PELLA *        MOSUNNY   77  64  62 S7        29.81S
PERRY *          N/A     81  57  44 S16       29.74F HX  81
$$

IAZ004>006-015-016-023>025-035-036-040100-
   NORTH CENTRAL IOWA

CITY           SKY/WX    TMP DP  RH WIND       PRES   REMARKS
ALGONA *       HVY RAIN  61  59  94 NW22G47   29.76R
CLARION *      MOSUNNY   81  57  44 S17       29.73F HX  81
ESTHERVILLE    CLOUDY    68  47  46 N18       29.81R
6HR MIN TEMP:  67; 6HR MAX TEMP:  86; 6HR PCP:  0.02;

FORT DODGE *   PTSUNNY   81  61  50 S13G21    29.74S HX  81
MASON CITY     PTSUNNY   78  57  48 S13       29.72F
6HR MIN TEMP:  78; 6HR MAX TEMP:  86;

FOREST CITY *    N/A     77  54  44 SW15      29.74R
IOWA FALLS *   PTSUNNY   77  59  53 S12       29.77S
$$

IAZ007>011-017>019-026>030-037>042-050>054-066-040100-
   NORTHEAST IOWA

CITY           SKY/WX    TMP DP  RH WIND       PRES   REMARKS
CEDAR RAPIDS   MOSUNNY   79  59  50 S13       29.80F HX  80
6HR MIN TEMP:  22; 6HR MAX TEMP:  82;

CHARLES CITY * MOSUNNY   79  55  44 S16G23    29.74F
CLINTON *      SUNNY     70  61  73 E14       29.87F
DECORAH *      SUNNY     77  57  50 S13       29.77S
DUBUQUE        MOSUNNY   69  59  70 SE12      29.84F
6HR MIN TEMP:  60; 6HR MAX TEMP:  72; 6HR PCP:  0.02;

MONTICELLO *   SUNNY     72  64  78 SE13      29.82S
OELWEIN *      PTSUNNY   81  57  44 S17G23    29.78F HX  81
WATERLOO       MOSUNNY   79  56  45 S17       29.75F HX  80
6HR MIN TEMP:  77; 6HR MAX TEMP:  81;

$$

IAZ064-065-067-068-078-040100-
   EAST CENTRAL IOWA

CITY           SKY/WX    TMP DP  RH WIND       PRES   REMARKS
DAVENPORT      MOSUNNY   80  54  40 S15G22    29.84F HX  80
6HR MIN TEMP:  66; 6HR MAX TEMP:  83; 6HR PCP:  0.01;

IOWA CITY      PTSUNNY   80  57  45 S9        29.83S HX  80
6HR MIN TEMP:  67; 6HR MAX TEMP:  82;

MT. PLEASANT * MOSUNNY   79  53  40 S13G23    29.85R
MUSCATINE *    PTSUNNY   81  57  44 S10G17    29.83S HX  81
QUAD CITIES    PTSUNNY   81  55  40 S9        29.83F HX  81
6HR MIN TEMP:  75; 6HR MAX TEMP:  83;

$$

IAZ062-063-075>077-085>089-095>099-040100-
   SOUTHEAST IOWA

CITY           SKY/WX    TMP DP  RH WIND       PRES   REMARKS
BURLINGTON     SUNNY     80  56  43 SW16G23   29.85R HX  80
6HR MIN TEMP:  78; 6HR MAX TEMP:  84;

FAIRFIELD *    SUNNY     79  55  44 S15G22    29.83F
FORT MADISON * SUNNY     79  55  44 S13       29.86S
KEOKUK *       SUNNY     79  57  47 S16       29.84F HX  80
OSKALOOSA *      N/A     78  56  46 S15       29.82S
CENTERVILLE *  SUNNY     77  59  53 S13G20    29.84S
OTTUMWA        SUNNY     78  58  49 S12       29.81F
6HR MIN TEMP:  77; 6HR MAX TEMP:  83; 6HR PCP: TRACE;

WASHINGTON *   SUNNY     79  59  50 SW13      29.84R HX  80
$$

ABBREVIATIONS USED IN REMARKS
   TC - TEMPERATURES IN CELSIUS
  WCI - WIND CHILL INDEX
   HX - HEAT INDEX
  VSB - VISIBILITY
$$




USA.gov is the U.S. government's official web portal to all federal, state and local government web resources and services.